TimeEST,TemperatureF,Dew PointF,Humidity,Sea Level PressureIn,VisibilityMPH,Wind Direction,Wind SpeedMPH,Gust SpeedMPH,PrecipitationIn,Events,Conditions,WindDirDegrees,DateUTC
12:15 AM,24.8,23.9,96,30.25,7.0,Calm,Calm,-,N/A,,Clear,0,2013-01-04 05:15:00
12:35 AM,23.7,22.8,96,30.25,7.0,Calm,Calm,-,N/A,,Clear,0,2013-01-04 05:35:00
12:55 AM,23.0,22.1,96,30.24,7.0,Calm,Calm,-,N/A,,Clear,0,2013-01-04 05:55:00
1:15 AM,21.9,21.0,96,30.24,7.0,Calm,Calm,-,N/A,,Clear,0,2013-01-04 06:15:00
1:35 AM,23.0,22.1,96,30.25,10.0,Calm,Calm,-,N/A,,Clear,0,2013-01-04 06:35:00
1:55 AM,26.8,24.6,92,30.26,10.0,WSW,4.6,-,N/A,,Clear,240,2013-01-04 06:55:00
2:15 AM,26.4,23.5,89,30.27,10.0,Calm,Calm,-,N/A,,Clear,0,2013-01-04 07:15:00
2:35 AM,28.8,23.7,81,30.27,10.0,WNW,3.5,-,N/A,,Clear,290,2013-01-04 07:35:00
2:55 AM,27.1,23.2,85,30.27,10.0,SW,4.6,-,N/A,,Clear,220,2013-01-04 07:55:00
3:15 AM,26.1,22.6,87,30.27,10.0,WSW,4.6,-,N/A,,Clear,250,2013-01-04 08:15:00
3:35 AM,23.9,21.7,91,30.26,10.0,Calm,Calm,-,N/A,,Clear,0,2013-01-04 08:35:00
3:55 AM,24.3,21.7,90,30.26,10.0,Calm,Calm,-,N/A,,Clear,0,2013-01-04 08:55:00
4:15 AM,23.9,21.6,91,30.26,10.0,West,3.5,-,N/A,,Clear,260,2013-01-04 09:15:00
7:15 AM,21.2,19.4,93,30.27,10.0,Calm,Calm,-,N/A,,Clear,0,2013-01-04 12:15:00
7:35 AM,21.0,19.4,93,30.27,10.0,Calm,Calm,-,N/A,,Clear,0,2013-01-04 12:35:00
8:15 AM,24.4,22.5,92,30.28,10.0,Calm,Calm,-,N/A,,Clear,0,2013-01-04 13:15:00
8:35 AM,28.4,24.8,86,30.29,10.0,Calm,Calm,-,N/A,,Clear,0,2013-01-04 13:35:00
8:55 AM,31.5,24.8,76,30.30,10.0,SW,4.6,-,N/A,,Clear,230,2013-01-04 13:55:00
9:15 AM,32.5,25.3,75,30.30,10.0,WSW,4.6,-,N/A,,Clear,240,2013-01-04 14:15:00
9:35 AM,34.7,25.0,68,30.30,10.0,West,6.9,-,N/A,,Clear,280,2013-01-04 14:35:00
9:55 AM,36.0,25.0,64,30.31,10.0,West,6.9,-,N/A,,Clear,270,2013-01-04 14:55:00
10:15 AM,37.6,24.4,59,30.32,10.0,West,10.4,-,N/A,,Clear,270,2013-01-04 15:15:00
10:35 AM,39.0,23.5,54,30.31,10.0,WNW,8.1,16.1,N/A,,Clear,300,2013-01-04 15:35:00
10:55 AM,40.3,22.8,50,30.32,10.0,West,9.2,-,N/A,,Clear,270,2013-01-04 15:55:00
11:15 AM,41.5,21.4,45,30.31,10.0,West,8.1,-,N/A,,Clear,280,2013-01-04 16:15:00
11:35 AM,42.6,21.6,43,30.29,10.0,WNW,10.4,17.3,N/A,,Clear,290,2013-01-04 16:35:00
11:55 AM,43.5,21.7,42,30.27,10.0,West,8.1,-,N/A,,Clear,280,2013-01-04 16:55:00
12:15 PM,44.2,20.8,39,30.26,10.0,WSW,9.2,-,N/A,,Clear,250,2013-01-04 17:15:00
12:35 PM,45.5,20.1,36,30.24,10.0,West,6.9,-,N/A,,Clear,280,2013-01-04 17:35:00
12:55 PM,46.8,19.6,34,30.24,10.0,WNW,6.9,-,N/A,,Clear,300,2013-01-04 17:55:00
1:15 PM,47.3,19.2,33,30.22,10.0,WNW,8.1,-,N/A,,Clear,300,2013-01-04 18:15:00
1:35 PM,47.5,18.1,31,30.21,10.0,WNW,6.9,-,N/A,,Clear,300,2013-01-04 18:35:00
1:55 PM,48.2,18.3,31,30.21,10.0,West,10.4,16.1,N/A,,Clear,280,2013-01-04 18:55:00
2:15 PM,48.7,18.9,31,30.20,10.0,West,6.9,16.1,N/A,,Clear,270,2013-01-04 19:15:00
2:35 PM,49.1,18.5,30,30.20,10.0,West,10.4,-,N/A,,Clear,270,2013-01-04 19:35:00
2:55 PM,49.5,17.8,29,30.19,10.0,WNW,9.2,-,N/A,,Clear,290,2013-01-04 19:55:00
3:15 PM,47.5,17.8,31,30.19,10.0,WNW,9.2,-,N/A,,Clear,290,2013-01-04 20:15:00
3:35 PM,47.7,18.1,31,30.20,10.0,West,9.2,-,N/A,,Scattered Clouds,270,2013-01-04 20:35:00
3:55 PM,47.3,18.3,32,30.21,10.0,West,4.6,-,N/A,,Overcast,270,2013-01-04 20:55:00
4:15 PM,46.6,19.0,33,30.21,10.0,West,6.9,-,N/A,,Overcast,270,2013-01-04 21:15:00
4:35 PM,45.9,18.7,34,30.21,10.0,WNW,5.8,-,N/A,,Overcast,290,2013-01-04 21:35:00
4:55 PM,45.5,18.9,35,30.21,10.0,WNW,6.9,-,N/A,,Mostly Cloudy,300,2013-01-04 21:55:00
5:15 PM,44.8,19.2,36,30.23,10.0,WNW,8.1,-,N/A,,Mostly Cloudy,300,2013-01-04 22:15:00
5:35 PM,43.7,18.9,37,30.24,10.0,WNW,6.9,-,N/A,,Scattered Clouds,290,2013-01-04 22:35:00
5:55 PM,42.8,18.9,38,30.23,10.0,WNW,9.2,-,N/A,,Clear,290,2013-01-04 22:55:00
6:35 PM,40.3,19.0,43,30.26,10.0,West,9.2,-,N/A,,Clear,280,2013-01-04 23:35:00
6:55 PM,39.4,19.0,44,30.27,10.0,West,5.8,-,N/A,,Clear,280,2013-01-04 23:55:00
7:15 PM,38.7,19.4,46,30.28,10.0,West,6.9,-,N/A,,Clear,270,2013-01-05 00:15:00
7:35 PM,38.3,20.1,48,30.29,10.0,West,5.8,-,N/A,,Clear,270,2013-01-05 00:35:00
7:55 PM,37.6,20.3,50,30.30,10.0,West,4.6,-,N/A,,Clear,280,2013-01-05 00:55:00
8:15 PM,36.1,20.3,53,30.31,10.0,Calm,Calm,-,N/A,,Clear,0,2013-01-05 01:15:00
8:35 PM,32.0,20.3,62,30.30,10.0,Calm,Calm,-,N/A,,Clear,0,2013-01-05 01:35:00
8:55 PM,29.8,21.0,70,30.31,10.0,Calm,Calm,-,N/A,,Clear,0,2013-01-05 01:55:00
9:15 PM,34.2,20.5,57,30.31,10.0,West,3.5,-,N/A,,Clear,280,2013-01-05 02:15:00
9:35 PM,29.7,20.3,68,30.30,10.0,Calm,Calm,-,N/A,,Clear,0,2013-01-05 02:35:00
9:55 PM,29.5,21.2,71,30.30,10.0,WSW,3.5,-,N/A,,Clear,240,2013-01-05 02:55:00
10:15 PM,31.8,21.0,64,30.30,10.0,SSW,3.5,-,N/A,,Clear,200,2013-01-05 03:15:00
10:35 PM,31.6,21.2,65,30.30,10.0,SSW,3.5,-,N/A,,Clear,210,2013-01-05 03:35:00
10:55 PM,31.3,21.2,66,30.30,10.0,SSW,3.5,-,N/A,,Clear,210,2013-01-05 03:55:00
11:15 PM,31.8,21.6,66,30.30,10.0,SW,4.6,-,N/A,,Clear,230,2013-01-05 04:15:00
11:55 PM,32.5,21.2,63,30.29,10.0,West,5.8,-,N/A,,Clear,270,2013-01-05 04:55:00